Location: Ch�tillon
(48.8024°N, 2.2935°E)
Time: 21:42:54
(UTC+00:00)

Spot 2 - Pass Details

Date: 16 October 2021
Orbit: 570 x 773 km, 98.7° (Epoch: 06 December)

Event Time Altitude Azimuth Distance (km) Brightness Sun altitude
Rises 18:12:02 0° 161° (SSE) 2,766 7.2 -12.8°
Reaches altitude 10° 18:14:08 10° 160° (SSE) 1,880 6.3 -13.1°
Maximum altitude 18:18:11 82° 73° (ENE) 600 3.9 -13.8°
Drops below altitude 10° 18:22:25 10° 347° (NNW) 1,964 6.8 -14.5°
Sets 18:24:39 0° 346° (NNW) 2,901 7.7 -14.8°
